Location: Ballingbuur
(53.0000°N, 5.7667°E)
Time: 04:41:44
(UTC+00:00)

FENGYUN 1C DEB - Visible Passes

Search period start: 15 June 2021 00:00
Search period end: 25 June 2021 00:00
Orbit: 681 x 720 km, 99.4° (Epoch: 13 June)

Date Brightness Start Highest point End Pass type
(mag) Time Alt. Az. Time Alt. Az. Time Alt. Az.
15 Jun ? 01:56:55 10° E 01:59:45 16° NE 02:02:33 10° NNE visible
17 Jun ? 01:44:38 10° ENE 01:46:42 13° NE 01:48:45 10° NNE visible
19 Jun ? 01:33:04 10° NE 01:33:40 10° NE 01:34:16 10° NE visible
20 Jun ? 02:11:57 10° E 02:15:13 19° NE 02:18:29 10° N visible
22 Jun ? 01:59:24 10° E 02:02:06 15° NE 02:04:48 10° NNE visible
24 Jun ? 01:47:05 10° ENE 01:48:58 12° NE 01:50:51 10° NNE visible
